CZ-6A DEB, 61075

Orbit data source: Space-Track

CZ-6A DEB, 61075 is space debris in LEO originally from a launch on Tue, 06 Aug 2024 UTC launched from the Taiyaun Space Center, China (TSC). Debris objects in space refer to the collection of defunct objects orbiting the Earth. Examples of debris include non-operational satellites, rocket bodies, and fragments generated from explosions, collisions, or faulty payload assembly.

Loading next visibility...
Identifier
61075, 2024-140MR
Orbit
LEO
Country
Flag of CNCN / PRC
Related business
Manufacturer
SAST
Mission
Spacecraft
Bus & Motor
Unknown
Mass
Unknown
Launch date (UTC)
2024-08-06 (2 years ago)
Launch vehicle
Unknown
Launch site
Taiyaun Space Center, China (TSC)
Object type
Payload
Rocket body
Debris
Shape & HBR
Unknown shape, 0.2 m
Radar Cross Section
Medium (>0.1 m² and <1 m²)

Expand to show TLE details & history
Last TLE update: 13 hours ago

TLE from 13 hours ago
0 CZ-6A DEB
1 61075U 24140MR  26171.31402227  .00001756  00000-0  28014-3 0  9995
2 61075  89.0619 273.9619 0145322 221.4557 137.5563 14.64601501 97457
Epoch: 2026-06-20T07:32Z
TLE epoch observation values (Epoch: 2026-06-20T07:32:11.524Z)
Latitude
0.00001°
Longitude
-107.61654°
Altitude
757.83 km
Speed
7.435 km/s
True Right ascension
18h 15m 50s
True Declination
0° 00' 00"
Sunlit
Object was in full shadow at epoch
Visualization orbit readout
Latitude
Unknown
Longitude
Unknown
Altitude
Unknown
Speed
Unknown
Apparent Right ascension
Unknown
Apparent Declination
Unknown
Sunlit
N/A
Visualization observer readout
Local Sidereal Time
07:24:06
Azimuth
Unknown
Elevation
Unknown
Doppler factor
Unknown
Orbital elements
Apogee altitude
777.742 km
Perigee altitude
572.74 km
Semi-major axis
7,053.378 km
Eccentricity
0.01453
Inclination
89.0619°
RAAN
273.9619°
Arg. of periapsis
221.4557°
True anomaly
138.66519°
Mean anomaly
137.5563°
Eccentric anomaly
138.11223°
Mean motion
3.66393 °/min
Orbital period
98.26 mins
BSTAR
0.00028014
Loading maneuver chart data...
Computing Atmospheric mass density...
Loading historical data...
Loading historical data...
Loading historical data...
Loading historical data...
Loading historical data...
Loading historical data...
Loading historical data...

Documentation

Showing up to 5 results
|